GW4950 Weather Reports


time (UTC)temp
C
wind
direction
speed
KPH
gust
KPH
rain 1hr
cm
rain 24hr
cm
rain mn
cm
humidity
%
barometer
mb
20260507074508 11 78 6.4 17.7 0.00 0.00 0.00 74 1009.9
20260507073010 11 73 4.8 12.9 0.00 0.00 0.00 75 1009.8
20260507071536 11 88 3.2 12.9 0.00 0.00 0.00 75 1009.8
20260507070035 11 71 6.4 14.5 0.00 0.00 0.00 75 1009.6
20260507064542 11 56 8.0 19.3 0.00 0.00 0.00 75 1009.6
20260507063048 11 42 8.0 16.1 0.00 0.00 0.00 75 1009.6
20260507061558 11 57 6.4 16.1 0.00 0.00 0.00 75 1009.5
20260507060015 11 56 6.4 17.7 0.00 0.00 0.00 75 1009.3
20260507054536 11 62 6.4 16.1 0.00 0.00 0.00 74 1009.1
20260507053022 11 64 1.6 14.5 0.00 0.00 0.00 74 1009.1
20260507051542 11 83 6.4 14.5 0.00 0.00 0.00 74 1009.1
20260507050035 11 44 9.7 16.1 0.00 0.00 0.00 74 1009.1
20260507044546 11 67 4.8 16.1 0.00 0.00 0.00 74 1009.3
20260507043041 11 29 8.0 12.9 0.00 0.00 0.00 74 1009.2
20260507041600 11 52 6.4 12.9 0.00 0.00 0.00 74 1009.3
20260507041506 11 50 6.4 12.9 0.00 0.00 0.00 74 1009.2
20260507040047 11 41 6.4 14.5 0.00 0.00 0.00 73 1009.3
20260507034530 11 40 6.4 12.9 0.00 0.00 0.00 73 1009.4
20260507033029 11 31 8.0 16.1 0.00 0.00 0.00 73 1009.4
20260507031533 11 17 9.7 17.7 0.00 0.00 0.00 72 1009.4
20260507030059 11 17 6.4 14.5 0.00 0.00 0.00 72 1009.6
20260507024554 10 35 6.4 16.1 0.00 0.00 0.00 71 1009.6
20260507023043 10 39 8.0 14.5 0.00 0.00 0.00 71 1009.6
20260507021503 10 39 11.3 17.7 0.00 0.00 0.00 71 1009.5
20260507020107 10 38 8.0 12.9 0.00 0.00 0.00 71 1009.6
20260507014516 10 29 9.7 17.7 0.00 0.00 0.00 70 1009.8
20260507013055 10 35 11.3 20.9 0.00 0.00 0.00 70 1009.8
20260507011557 10 53 6.4 22.5 0.00 0.00 0.00 68 1010.0
20260507011513 10 60 6.4 22.5 0.00 0.00 0.00 68 1009.9
20260507010051 10 36 8.0 12.9 0.00 0.00 0.00 67 1010.0
20260507004538 11 44 12.9 22.5 0.00 0.00 0.00 65 1009.9
20260507003011 11 57 12.9 24.1 0.00 0.00 0.00 62 1009.9
20260507001528 11 42 14.5 25.7 0.00 0.00 0.00 61 1009.7
20260507000039 11 62 9.7 17.7 0.00 0.00 0.00 62 1009.8
20260506234539 9 57 0.0 9.7 0.00 0.00 0.00 71 1009.8
20260506233023 8 342 0.0 0.0 0.00 0.00 0.00 73 1009.8
20260506231559 8 342 0.0 0.0 0.00 0.00 0.00 71 1009.8
20260506230057 8 342 0.0 0.0 0.00 0.00 0.00 73 1009.7
20260506224515 8 342 0.0 6.4 0.00 0.00 0.00 69 1009.6
20260506223059 8 342 1.6 6.4 0.00 0.00 0.00 71 1009.6
20260506221514 8 342 1.6 8.0 0.00 0.00 0.00 70 1009.6
20260506220011 8 6 0.0 4.8 0.00 0.00 0.00 70 1009.7
20260506214531 8 7 3.2 6.4 0.00 0.00 0.00 69 1009.7
20260506213019 9 13 6.4 11.3 0.00 0.00 0.00 68 1009.7
20260506211552 8 29 0.0 4.8 0.00 0.00 0.00 70 1009.7
20260506210035 8 31 0.0 4.8 0.00 0.00 0.00 69 1009.7
20260506204522 9 87 0.0 3.2 0.00 0.00 0.00 67 1009.6
20260506203025 10 100 0.0 4.8 0.00 0.00 0.00 64 1009.5
20260506201535 11 100 0.0 6.4 0.00 0.00 0.00 60 1009.5
20260506200047 12 116 0.0 0.0 0.00 0.00 0.00 55 1009.3
20260506194530 14 116 0.0 0.0 0.00 0.00 0.00 44 1009.3
20260506193021 14 116 0.0 0.0 0.00 0.00 0.00 44 1009.2
20260506191507 14 116 0.0 0.0 0.00 0.00 0.00 43 1009.2
20260506190058 15 116 0.0 6.4 0.00 0.00 0.00 42 1009.1
20260506184520 15 118 3.2 8.0 0.00 0.00 0.00 40 1009.1
20260506183016 15 125 3.2 9.7 0.00 0.00 0.00 39 1009.0
20260506181552 16 122 4.8 9.7 0.00 0.00 0.00 39 1008.9
20260506180049 16 117 4.8 11.3 0.00 0.00 0.00 38 1009.0
20260506174508 16 121 1.6 14.5 0.00 0.00 0.00 39 1009.0
20260506173108 17 137 3.2 9.7 0.00 0.00 0.00 38 1009.0
20260506171506 16 111 0.0 11.3 0.00 0.00 0.00 39 1009.1
20260506170107 16 73 0.0 9.7 0.00 0.00 0.00 38 1009.1
20260506164508 16 158 3.2 11.3 0.00 0.00 0.00 37 1009.2
20260506163002 17 118 4.8 14.5 0.00 0.00 0.00 37 1009.2
20260506161516 17 14 0.0 12.9 0.00 0.00 0.00 38 1009.2
20260506160011 17 159 6.4 16.1 0.00 0.00 0.00 37 1009.3
20260506154532 18 11 1.6 16.1 0.00 0.00 0.00 38 1009.4
20260506153020 17 100 3.2 11.3 0.00 0.00 0.00 39 1009.5
20260506151602 17 115 1.6 14.5 0.00 0.00 0.00 39 1009.6
20260506151506 17 110 1.6 14.5 0.00 0.00 0.00 38 1009.6
20260506150046 17 212 1.6 14.5 0.00 0.00 0.00 39 1009.8
20260506144514 16 176 8.0 17.7 0.00 0.00 0.00 41 1010.0
20260506143004 17 217 3.2 14.5 0.00 0.00 0.00 42 1010.2
20260506141540 16 227 4.8 16.1 0.00 0.00 0.00 41 1010.3
20260506140022 16 183 9.7 17.7 0.00 0.00 0.00 43 1010.5
20260506134536 17 139 3.2 9.7 0.00 0.00 0.00 44 1010.6
20260506133029 15 210 6.4 16.1 0.00 0.00 0.00 43 1010.7
20260506131547 16 271 0.0 9.7 0.00 0.00 0.00 47 1010.8
20260506130036 15 140 0.0 12.9 0.00 0.00 0.00 48 1011.0
20260506124557 15 154 8.0 17.7 0.00 0.00 0.00 47 1011.1
20260506123036 16 150 3.2 11.3 0.00 0.00 0.00 47 1011.2
20260506121553 15 100 6.4 12.9 0.00 0.00 0.00 48 1011.3
20260506120045 15 141 1.6 12.9 0.00 0.00 0.00 52 1011.4
20260506114508 15 144 8.0 19.3 0.00 0.00 0.00 50 1011.6
20260506113057 14 92 1.6 11.3 0.00 0.00 0.00 47 1011.7
20260506111535 14 75 1.6 12.9 0.00 0.00 0.00 51 1011.8
20260506110021 14 99 1.6 16.1 0.00 0.00 0.00 52 1011.9
20260506104538 13 173 1.6 16.1 0.00 0.00 0.00 55 1012.0
20260506103025 12 150 0.0 11.3 0.00 0.00 0.00 55 1012.1
20260506101541 13 110 6.4 12.9 0.00 0.00 0.00 58 1012.1
20260506100029 13 177 3.2 11.3 0.00 0.00 0.00 56 1012.3
20260506094539 12 162 4.8 16.1 0.00 0.00 0.00 57 1012.2
20260506093029 12 103 3.2 9.7 0.00 0.00 0.00 60 1012.2
20260506091545 12 179 4.8 12.9 0.00 0.00 0.00 61 1012.2
20260506090041 11 102 1.6 8.0 0.00 0.00 0.00 64 1012.2
20260506084609 11 218 4.8 9.7 0.00 0.00 0.00 64 1012.2
20260506083041 11 117 4.8 8.0 0.00 0.00 0.00 65 1012.2
20260506081547 10 119 4.8 9.7 0.00 0.00 0.00 64 1012.2